[[{"header":{"parameterUnit":"m.s-1","parameterCategory":1,"la1":30.2992,"la2":30.254,"lo1":-89.0895,"lo2":-89.0443,"dy":0.0025,"dx":0.0025,"nx":19,"ny":19,"refTime":"2026-03-21T09:00:00:Z","depth":0,"parameterNumber":2,"parameterNumberName":"U-component_of_WINDS"},"data":[0,0,0,4.7304,4.7307,4.7465,4.7466,4.7681,4.7683,0,0,0,0,0,0,0,0,0,0,0,4.7266,4.7267,4.7303,4.7308,4.7465,4.7466,4.7681,4.7683,0,0,0,0,0,0,0,0,0,0,0,4.7265,4.7267,4.7269,4.7308,4.7465,4.7466,4.768,4.7556,0,0,0,0,0,0,0,0,0,0,4.7401,4.7374,4.7266,4.7269,4.7309,4.7465,4.7466,4.755,4.7564,4.7616,0,4.7664,0,4.7677,4.7699,4.7699,0,0,0,4.7301,4.7363,4.7397,4.7269,4.7311,4.7465,4.7392,4.7558,4.7574,4.7634,4.7667,4.7674,4.7681,4.77,4.7701,4.8019,4.802,0,0,4.7292,4.7299,4.7386,4.7408,4.7385,4.7387,4.7397,4.7567,4.7603,4.7668,4.7679,4.7684,4.7702,4.7703,4.8017,4.8019,0,0,0,4.7272,4.7293,4.7323,4.7399,4.7427,4.7392,4.7403,4.7596,4.7605,4.7682,4.7687,4.7703,4.7706,4.8015,4.8018,4.811,0,0,0,4.7266,4.7281,4.732,4.7325,4.7424,4.7513,4.7428,4.7593,4.7612,4.7686,4.7703,4.7708,4.8013,4.8016,4.8103,4.8153,0,0,0,4.7252,4.7279,4.7305,4.7325,4.7393,4.751,4.7529,4.7597,4.7616,4.77,4.7709,4.8012,4.8016,4.8097,4.8143,4.8236,0,0,0,4.7239,4.7386,4.7306,4.7472,4.7392,4.7567,4.7528,4.7659,4.7742,4.7704,4.8013,4.8017,4.8096,4.8137,4.823,4.8315,4.8351,0,0,4.7428,4.7409,4.7506,4.7439,4.763,4.7542,4.7747,4.7817,4.782,4.7952,4.796,4.8106,4.8142,4.8235,4.8557,4.8586,0,0,0,4.7568,4.7637,4.7687,4.7766,4.7823,4.7875,4.7914,4.794,4.8051,4.7889,4.8166,4.8187,4.8241,4.8281,4.8306,4.8351,4.8037,4.8036,4.8036,4.7843,4.7838,4.7997,4.8011,4.8088,4.8126,4.8187,4.8229,4.8202,4.8267,4.8306,4.8502,4.8549,4.8568,4.8615,4.8352,4.8352,4.8353,4.8353,4.8117,4.8213,4.8174,4.8314,4.8308,4.8425,4.8467,4.8444,4.8552,4.8473,4.852,4.8432,4.86,4.8641,4.836,4.8359,4.8358,4.8357,4.8357,4.8295,4.834,4.8369,4.8481,4.8569,4.8578,4.8683,4.8674,4.8666,4.8714,4.8752,4.875,4.8746,4.8733,4.8734,4.8734,4.8735,4.8735,4.8736,4.8467,4.8496,4.8586,4.8658,4.8707,4.877,4.8809,4.8856,4.8907,4.8892,4.8892,4.8857,4.8618,4.8557,4.8746,4.8744,4.8743,4.8742,4.8741,4.8743,4.8679,4.8818,4.8866,4.8949,4.9036,4.9023,4.912,4.9159,4.921,4.9166,4.8991,4.8971,4.8951,4.89,4.9168,4.9168,4.9168,4.9168,4.8892,4.8881,4.9019,4.9097,4.9173,4.9175,4.9331,4.9362,4.9384,4.9407,4.9368,4.93,4.9281,4.9272,4.9246,4.9198,4.9535,4.9535,4.9535,4.906,4.9056,4.919,4.9211,4.9275,4.933,4.9475,4.9566,4.9578,4.955,4.9425,4.9409,4.93,4.9265,4.9232,4.9191,4.9103,0,0]},{"header":{"parameterUnit":"m.s-1","parameterCategory":1,"la1":30.2992,"la2":30.254,"lo1":-89.0895,"lo2":-89.0443,"dy":0.0025,"dx":0.0025,"nx":19,"ny":19,"refTime":"2026-03-21T09:00:00:Z","depth":0,"parameterNumber":3,"parameterNumberName":"V-component_of_WINDS"},"data":[0,0,0,2.8495,2.8496,2.8539,2.8539,2.8601,2.8601,0,0,0,0,0,0,0,0,0,0,0,2.8487,2.8488,2.8495,2.8496,2.8539,2.8539,2.86,2.8601,0,0,0,0,0,0,0,0,0,0,0,2.8487,2.8488,2.8488,2.8496,2.8539,2.8539,2.86,2.8565,0,0,0,0,0,0,0,0,0,0,2.8522,2.8521,2.8487,2.8488,2.8496,2.8539,2.8539,2.8563,2.8567,2.8584,0,2.8602,0,2.8603,2.8606,2.8606,0,0,0,2.8492,2.8517,2.8524,2.8488,2.8497,2.8539,2.8518,2.8565,2.857,2.859,2.8603,2.8605,2.8604,2.8606,2.8607,2.8721,2.8721,0,0,2.8489,2.8497,2.8521,2.8528,2.8523,2.8517,2.852,2.8568,2.8582,2.8603,2.8606,2.8605,2.8607,2.8607,2.872,2.8721,0,0,0,2.8485,2.8496,2.8502,2.8525,2.8533,2.8518,2.8521,2.858,2.8581,2.8606,2.8605,2.8607,2.8608,2.8719,2.872,2.8765,0,0,0,2.8484,2.8494,2.8501,2.8506,2.8532,2.8557,2.8532,2.8578,2.8583,2.8605,2.8607,2.8609,2.8718,2.872,2.8762,2.8784,0,0,0,2.8483,2.8493,2.8502,2.8507,2.8525,2.8556,2.856,2.8579,2.8583,2.8606,2.8609,2.8718,2.8719,2.8759,2.878,2.8817,0,0,0,2.8483,2.854,2.8502,2.8565,2.8525,2.8584,2.856,2.8603,2.8628,2.8607,2.8718,2.872,2.8758,2.8777,2.8814,2.8849,2.8865,0,0,2.8559,2.8549,2.8586,2.8553,2.8621,2.8577,2.865,2.8665,2.8659,2.87,2.8703,2.8763,2.878,2.8816,2.8949,2.8962,0,0,0,2.8612,2.8639,2.8655,2.868,2.8693,2.8706,2.8709,2.8715,2.8749,2.8682,2.8786,2.8796,2.8817,2.8833,2.8844,2.8861,2.8728,2.8728,2.8728,2.8731,2.8722,2.8781,2.8776,2.8801,2.8803,2.8822,2.8829,2.8812,2.8836,2.8849,2.8931,2.895,2.8958,2.8977,2.8866,2.8867,2.8867,2.8867,2.8841,2.8877,2.8853,2.8901,2.889,2.8931,2.8935,2.8921,2.8956,2.8921,2.8939,2.8901,2.8972,2.8988,2.887,2.887,2.8869,2.8869,2.8869,2.8918,2.8933,2.894,2.8975,2.9003,2.8996,2.9031,2.902,2.9009,2.9027,2.9038,2.9037,2.9035,2.9033,2.9033,2.9034,2.9034,2.9034,2.9034,2.8995,2.9001,2.9033,2.9052,2.9067,2.9084,2.9087,2.9101,2.9113,2.9101,2.9101,2.9081,2.8981,2.8956,2.9039,2.9038,2.9037,2.9037,2.9037,2.911,2.9083,2.9132,2.9147,2.9168,2.9196,2.9181,2.921,2.9219,2.9237,2.9213,2.9141,2.913,2.9121,2.9101,2.9215,2.9215,2.9215,2.9215,2.9175,2.9168,2.9216,2.924,2.9263,2.9254,2.9309,2.9312,2.931,2.9315,2.9297,2.9268,2.926,2.9253,2.9242,2.9223,2.9365,2.9366,2.9366,2.9245,2.924,2.929,2.9289,2.9305,2.9318,2.9369,2.9397,2.9389,2.9372,2.9318,2.9312,2.9266,2.9252,2.9233,2.9216,2.918,0,0]}]]